Temp
61 61 61 60 60 60 60 60 60 61 61 61 61 61 61 61 60 57 58 71 70 73 73 77 75 73 71 67 70 69 53 48 53 59 64 76 71 82 87 87 87 83 78 83 82
60 61 60 60 60 60 60 60 60 60 60 61 61 61 61 61 54 56 70 73 73 74 74 71 68 69 63 63 66 63 51 56 64 67 67 69 70 76 80 80 83 80 82 86 83
60 60 60 60 60 60 59 60 60 60 61 61 61 61 61 59 58 68 76 74 74 75 74 73 70 67 56 58 62 59 57 63 68 72 72 69 73 77 77 73 80 80 82 83 78
60 60 60 60 60 59 59 59 60 60 61 60 60 60 61 56 55 72 76 75 74 75 72 69 65 57 54 57 63 56 69 67 71 74 71 72 76 74 76 76 87 87 87 87 79
59 59 59 59 59 59 59 59 59 60 60 60 60 60 56 55 61 76 75 75 74 74 70 66 60 59 53 58 61 58 66 70 74 72 71 75 73 74 75 80 82 87 85 86 88
58 58 59 59 59 59 58 58 58 58 59 60 60 60 56 53 75 77 75 73 74 70 71 67 66 66 63 62 59 67 67 68 69 69 67 69 73 71 77 79 79 84 78 83 87
58 58 58 58 58 58 58 58 57 58 60 62 61 62 58 62 77 74 75 73 76 77 73 74 74 68 65 64 65 65 60 65 67 67 67 69 68 69 77 79 76 79 81 84 85
58 57 58 58 58 58 58 58 58 59 62 62 62 59 55 74 73 74 75 76 79 78 78 79 75 69 64 65 67 60 55 50 63 69 72 68 58 71 77 75 77 78 80 82 84
58 57 57 58 58 58 58 57 59 60 62 62 56 55 56 76 75 79 78 77 79 80 78 87 73 66 67 56 51 52 47 51 59 67 68 64 61 71 75 74 73 75 74 81 80
58 57 57 57 58 57 56 57 61 61 62 66 68 57 64 72 80 84 81 81 78 75 72 69 62 57 54 50 43 46 49 51 55 66 62 62 61 69 73 72 74 76 76 74 79
58 57 57 57 57 57 53 55 60 57 58 62 63 64 73 82 85 80 83 79 76 69 59 62 54 49 54 56 58 57 54 53 60 67 61 61 61 66 70 68 69 72 72 71 73
57 57 57 57 57 56 50 58 66 67 58 68 71 71 77 79 71 76 81 71 66 58 60 55 50 60 63 62 60 58 55 54 59 65 61 61 60 65 67 68 70 69 70 71 69
56 56 56 56 55 55 59 67 74 67 56 66 72 71 72 74 68 71 77 71 64 58 58 53 59 67 65 62 60 58 56 57 57 65 62 58 56 59 67 67 71 72 72 72 73
56 56 56 56 58 56 62 72 69 67 46 57 66 71 72 73 67 80 82 73 63 60 59 56 64 64 63 61 63 54 64 64 61 55 47 58 49 53 61 64 65 68 68 71 74
55 56 56 55 47 56 70 67 67 64 36 66 68 80 74 68 71 72 80 71 63 63 61 56 59 59 58 61 65 59 67 63 62 54 48 49 44 49 55 60 64 67 69 71 71
55 56 56 55 47 56 64 65 64 47 38 62 72 68 66 69 72 73 71 73 71 62 60 59 65 64 62 67 65 65 60 56 52 48 43 47 47 45 53 58 62 67 67 64 67
55 55 53 58 57 62 63 60 45 38 62 58 61 66 64 63 67 67 63 58 52 46 46 55 58 64 67 57 60 58 50 40 38 38 37 51 46 47 54 57 57 56 58 60 61
53 53 53 60 56 61 59 51 35 53 55 63 62 63 58 59 60 63 59 52 56 53 46 45 46 59 64 56 50 53 50 41 31 32 39 52 43 48 57 58 59 59 57 58 58
52 51 55 64 63 61 53 39 41 51 58 55 58 54 55 57 58 58 56 54 52 51 42 40 45 61 62 64 59 50 45 54 43 40 37 43 47 53 55 56 56 55 55 53 55
46 46 54 67 64 58 47 43 50 58 59 56 47 54 47 51 51 50 53 56 54 55 52 45 38 54 59 62 58 53 56 42 41 29 28 39 41 42 45 48 53 51 49 52 54
45 47 61 64 61 51 41 44 54 59 58 52 50 49 49 46 49 48 51 53 58 55 53 46 40 42 53 49 45 46 43 44 43 40 32 29 35 47 44 47 47 48 50 50 52
41 44 62 63 47 43 41 49 55 55 57 55 53 50 48 50 49 48 46 53 58 54 46 45 39 32 42 52 57 53 44 42 29 32 36 38 34 52 48 48 50 50 53 52 52
37 42 59 58 38 38 46 52 55 54 51 52 51 53 52 47 40 48 50 59 58 53 46 44 34 27 33 42 49 45 49 48 44 34 32 31 36 51 52 51 53 52 55 56 55
39 39 46 46 45 41 40 44 46 57 52 53 52 51 46 44 47 45 50 53 56 55 56 49 36 31 26 33 40 39 44 47 42 33 32 34 38 47 48 49 50 51 53 53 54
41 40 43 36 40 40 40 45 44 44 50 49 46 47 44 37 42 44 47 51 53 55 47 42 33 37 40 44 44 43 44 46 42 42 36 41 40 46 50 50 51 51 52 53 54
39 39 40 39 42 42 42 41 44 45 44 43 41 46 45 38 42 39 42 40 41 46 40 40 32 35 35 42 42 40 43 43 43 44 43 43 39 47 49 52 51 53 55 53 54
43 44 40 39 39 38 39 42 43 44 47 49 46 43 42 44 47 46 45 45 43 39 37 35 31 29 27 38 37 30 38 41 42 42 40 33 37 45 45 47 47 47 51 53 54
MSLP
1020.19 1019.66 1019.13 1018.63 1018.18 1017.79 1017.37 1016.96 1016.58 1016.27 1016.00 1015.74 1015.52 1015.40 1015.13 1014.82 1014.38 1014.18 1013.31 1010.64 1010.50 1010.30 1010.66 1010.58 1010.55 1010.62 1010.73 1010.96 1011.07 1011.58 1012.57 1012.77 1012.16 1011.02 1008.80 1008.30 1007.62 1006.37 1005.53 1005.02 1003.87 1005.69 1006.51 1006.58 1008.48
1020.21 1019.70 1019.14 1018.52 1018.02 1017.62 1017.25 1016.84 1016.42 1016.06 1015.78 1015.55 1015.32 1015.16 1014.96 1014.66 1014.36 1013.09 1009.74 1009.52 1009.88 1010.16 1010.72 1010.76 1010.71 1010.80 1011.01 1010.92 1010.89 1011.38 1012.13 1011.76 1010.98 1010.06 1008.88 1008.49 1007.85 1006.95 1006.03 1004.96 1005.19 1005.37 1005.78 1006.25 1007.37
1020.26 1019.70 1019.12 1018.52 1017.98 1017.52 1017.12 1016.70 1016.24 1015.86 1015.57 1015.35 1015.18 1015.01 1014.79 1014.60 1013.81 1010.50 1008.85 1009.14 1009.62 1009.99 1010.29 1010.43 1010.67 1011.02 1011.20 1010.92 1010.69 1010.78 1010.80 1010.39 1009.94 1009.36 1008.48 1008.15 1007.68 1006.90 1006.14 1005.44 1005.38 1004.74 1005.41 1006.58 1008.39
1020.19 1019.53 1018.94 1018.39 1017.85 1017.31 1016.82 1016.35 1015.93 1015.56 1015.33 1015.20 1015.03 1014.88 1014.66 1014.34 1012.49 1009.13 1008.69 1008.93 1009.59 1010.06 1010.47 1010.46 1010.71 1011.23 1011.29 1011.20 1010.46 1010.56 1009.89 1009.77 1009.19 1008.54 1008.24 1007.70 1007.06 1006.77 1006.18 1005.75 1005.10 1004.70 1004.60 1005.75 1008.26
1020.26 1019.59 1018.93 1018.33 1017.76 1017.14 1016.58 1016.06 1015.63 1015.30 1015.05 1014.95 1014.84 1014.81 1014.72 1013.74 1011.03 1008.54 1008.75 1009.27 1009.86 1010.19 1010.28 1010.52 1010.69 1010.94 1011.11 1010.68 1010.36 1010.37 1009.71 1009.02 1008.49 1008.18 1007.91 1007.14 1006.75 1006.46 1005.90 1005.30 1005.22 1005.17 1004.82 1004.67 1004.86
1020.28 1019.55 1018.83 1018.14 1017.45 1016.84 1016.26 1015.73 1015.32 1014.97 1014.65 1014.54 1014.59 1014.68 1014.40 1012.54 1008.42 1008.20 1008.78 1009.31 1009.50 1009.85 1009.92 1010.14 1010.19 1010.36 1010.60 1010.41 1010.43 1009.56 1009.26 1008.72 1008.15 1007.84 1007.42 1007.18 1006.39 1005.94 1005.24 1004.75 1004.93 1004.90 1005.40 1005.10 1004.79
1020.17 1019.44 1018.68 1017.92 1017.19 1016.51 1015.87 1015.30 1014.85 1014.64 1014.35 1014.10 1014.29 1014.42 1013.65 1009.98 1008.11 1008.25 1008.56 1008.58 1008.52 1009.00 1009.36 1009.24 1009.34 1010.28 1010.08 1010.29 1009.58 1009.64 1009.53 1008.59 1007.96 1007.51 1007.03 1006.63 1006.31 1005.90 1004.97 1004.59 1004.68 1005.03 1004.82 1004.78 1005.01
1020.02 1019.29 1018.52 1017.70 1016.88 1016.07 1015.40 1014.84 1014.38 1014.26 1014.06 1014.06 1014.23 1014.14 1012.24 1008.39 1008.24 1008.44 1008.50 1008.43 1008.25 1008.36 1008.56 1008.43 1008.76 1009.57 1010.08 1009.94 1009.81 1010.18 1009.87 1009.37 1008.16 1007.57 1006.79 1006.76 1006.28 1005.66 1004.91 1004.93 1004.49 1004.49 1004.74 1004.63 1004.56
1019.78 1018.98 1018.14 1017.32 1016.54 1015.66 1014.85 1014.19 1013.74 1013.70 1013.92 1014.08 1014.16 1013.69 1010.98 1007.82 1007.71 1006.90 1007.58 1008.06 1007.85 1007.81 1008.04 1008.04 1008.40 1009.36 1009.82 1010.60 1011.05 1011.06 1010.61 1009.97 1008.79 1007.61 1007.08 1006.72 1006.35 1005.32 1004.85 1004.96 1004.72 1004.06 1004.29 1004.44 1004.04
1019.68 1018.71 1017.78 1016.86 1016.06 1015.30 1014.39 1013.41 1013.39 1013.56 1013.92 1013.87 1013.32 1013.12 1009.68 1007.25 1006.17 1006.01 1006.48 1006.94 1007.53 1007.71 1008.13 1008.35 1009.04 1009.78 1010.66 1011.45 1011.60 1011.48 1010.96 1010.04 1009.16 1007.46 1007.36 1007.03 1006.72 1005.81 1005.03 1005.08 1004.75 1004.15 1003.64 1003.80 1004.01
1019.40 1018.48 1017.38 1016.40 1015.58 1015.06 1014.37 1013.48 1013.50 1013.34 1012.96 1012.00 1011.28 1010.17 1008.02 1006.62 1005.60 1005.79 1005.84 1006.49 1007.02 1007.73 1008.52 1008.88 1009.98 1010.33 1010.68 1010.92 1010.92 1010.92 1010.73 1010.15 1008.81 1007.64 1007.69 1006.97 1006.58 1006.04 1005.19 1005.00 1004.66 1004.18 1003.92 1003.59 1003.60
1019.10 1018.16 1017.03 1015.77 1014.74 1014.27 1014.41 1013.53 1011.77 1011.33 1010.69 1009.78 1008.82 1008.25 1007.26 1006.73 1007.00 1005.90 1005.81 1006.54 1007.19 1008.10 1008.74 1009.63 1009.89 1009.70 1009.72 1009.96 1010.22 1010.22 1010.06 1009.55 1008.67 1007.61 1007.32 1006.62 1006.55 1005.88 1005.41 1004.90 1004.34 1003.91 1003.90 1003.52 1003.66
1018.96 1018.07 1016.83 1015.68 1014.12 1013.77 1013.45 1012.11 1010.34 1010.44 1010.63 1007.74 1006.48 1006.07 1005.78 1006.47 1006.23 1005.82 1006.04 1006.22 1007.11 1008.12 1008.79 1009.48 1009.16 1008.90 1009.27 1009.16 1009.53 1009.23 1009.21 1008.76 1008.48 1007.55 1006.76 1006.62 1006.30 1006.16 1005.34 1004.91 1004.40 1004.01 1003.67 1003.54 1003.39
1018.75 1017.89 1017.06 1015.88 1013.88 1013.94 1012.49 1010.85 1010.48 1010.21 1010.41 1007.54 1005.22 1004.28 1004.39 1004.97 1005.10 1004.79 1005.11 1005.87 1006.95 1007.59 1008.55 1009.02 1008.40 1008.73 1008.63 1008.62 1008.44 1008.40 1007.72 1007.68 1007.78 1007.80 1007.59 1006.82 1006.61 1006.60 1005.90 1005.22 1004.82 1004.33 1004.15 1003.52 1003.00
1018.50 1017.24 1016.87 1016.80 1015.68 1014.07 1011.70 1010.88 1010.49 1010.60 1010.06 1005.99 1004.35 1003.13 1003.72 1004.62 1004.05 1003.72 1004.14 1005.21 1006.21 1007.21 1008.19 1008.48 1008.33 1008.26 1008.17 1008.14 1007.95 1007.73 1007.30 1007.32 1007.50 1007.80 1007.74 1007.75 1007.92 1006.96 1006.74 1006.38 1005.47 1004.81 1004.32 1003.49 1002.84
1017.79 1016.71 1016.31 1015.44 1015.77 1012.93 1011.83 1011.31 1010.91 1011.59 1009.28 1006.36 1004.76 1004.27 1004.57 1004.73 1004.41 1004.54 1004.64 1004.80 1005.60 1006.96 1007.64 1008.18 1007.85 1007.92 1007.46 1007.36 1007.62 1007.51 1007.41 1007.56 1007.95 1008.58 1008.28 1008.35 1008.27 1008.13 1007.78 1007.32 1006.53 1005.87 1006.25 1006.16 1005.14
1017.07 1016.12 1015.45 1015.10 1013.67 1012.25 1011.95 1011.89 1012.52 1011.32 1008.61 1008.22 1007.07 1006.33 1005.75 1006.06 1005.71 1005.62 1005.94 1006.69 1007.51 1008.37 1008.69 1008.70 1008.28 1007.89 1007.90 1007.92 1007.77 1008.30 1008.71 1009.18 1009.45 1009.86 1009.23 1008.62 1008.66 1008.54 1008.40 1008.80 1008.77 1008.84 1008.63 1008.26 1007.39
1016.68 1015.34 1014.64 1013.77 1012.78 1012.72 1012.70 1013.18 1013.24 1011.51 1010.67 1009.64 1008.88 1007.69 1007.54 1007.68 1007.56 1007.41 1007.41 1008.72 1009.58 1009.95 1010.36 1010.07 1009.50 1009.19 1009.44 1009.64 1009.90 1009.85 1010.09 1011.09 1011.35 1011.20 1010.55 1009.76 1008.95 1009.02 1009.13 1009.38 1009.60 1010.02 1010.20 1009.53 1008.27
1017.02 1015.42 1014.33 1012.67 1012.21 1012.78 1013.82 1014.46 1013.77 1012.62 1012.06 1011.24 1010.04 1009.46 1009.30 1009.28 1009.17 1009.12 1009.85 1010.65 1011.50 1011.61 1011.97 1011.78 1011.14 1010.70 1010.46 1010.54 1010.78 1011.42 1011.78 1012.11 1012.33 1012.12 1011.95 1010.75 1009.99 1009.94 1009.64 1009.73 1010.30 1010.90 1010.77 1011.14 1010.15
1018.39 1017.12 1014.71 1012.43 1012.24 1013.22 1014.50 1014.77 1013.96 1013.40 1012.73 1012.24 1012.04 1011.82 1011.56 1011.28 1010.96 1011.07 1011.20 1012.27 1012.46 1012.56 1012.44 1013.29 1013.09 1012.22 1011.46 1011.36 1012.35 1013.13 1013.47 1013.37 1013.98 1014.37 1013.49 1012.00 1011.32 1011.41 1011.60 1011.53 1011.74 1012.07 1012.04 1012.40 1011.45
1018.64 1017.25 1013.71 1012.65 1012.44 1014.10 1015.33 1015.03 1014.22 1013.92 1013.57 1013.42 1013.25 1013.16 1013.26 1013.40 1013.14 1012.95 1012.70 1013.15 1013.05 1013.08 1013.36 1014.10 1014.53 1014.21 1013.23 1013.48 1013.72 1014.19 1014.59 1014.97 1015.10 1015.45 1015.33 1014.44 1013.18 1012.80 1012.79 1012.42 1012.24 1012.86 1012.77 1012.73 1011.86
1020.41 1018.15 1014.01 1013.26 1014.74 1015.91 1016.54 1015.96 1014.93 1014.54 1014.24 1014.14 1014.08 1014.07 1014.38 1014.24 1013.97 1014.08 1014.08 1013.54 1013.57 1013.69 1014.20 1014.76 1015.28 1015.67 1015.38 1014.30 1014.01 1014.52 1015.72 1015.92 1016.09 1016.11 1015.77 1015.30 1014.20 1013.14 1014.04 1013.62 1013.06 1012.31 1012.32 1012.08 1012.12
1022.11 1019.51 1015.24 1014.69 1017.07 1017.93 1017.33 1016.36 1015.59 1015.09 1014.93 1014.78 1014.97 1015.01 1015.14 1015.29 1015.04 1014.38 1014.01 1013.50 1013.73 1014.26 1014.94 1015.42 1016.43 1016.88 1016.37 1015.67 1015.26 1015.54 1015.83 1015.97 1016.10 1016.35 1016.07 1015.65 1014.39 1013.82 1013.78 1013.56 1012.58 1011.96 1011.60 1011.30 1011.20
1022.63 1020.89 1018.43 1018.08 1018.50 1018.78 1018.26 1017.26 1016.54 1015.62 1015.66 1015.49 1015.59 1015.65 1015.85 1015.68 1015.32 1015.09 1014.70 1014.78 1014.64 1015.03 1015.46 1015.87 1017.32 1017.93 1018.06 1017.64 1017.14 1016.47 1016.02 1016.04 1016.32 1016.55 1016.42 1016.01 1015.07 1014.22 1013.67 1013.39 1012.77 1012.05 1011.61 1011.36 1011.28
1022.82 1022.04 1021.08 1020.58 1019.79 1019.73 1018.87 1017.90 1017.17 1016.67 1016.47 1016.39 1016.44 1016.74 1016.96 1016.62 1015.94 1015.91 1015.82 1015.63 1015.77 1016.00 1016.42 1017.26 1018.36 1018.53 1018.41 1018.10 1017.55 1016.90 1016.33 1016.07 1016.10 1016.05 1016.14 1015.69 1015.41 1014.80 1013.90 1013.25 1012.46 1011.87 1011.37 1011.37 1011.20
1023.12 1022.78 1022.20 1021.57 1020.68 1020.14 1019.06 1018.28 1017.72 1017.47 1017.43 1017.45 1017.74 1017.47 1017.33 1017.46 1017.38 1017.21 1017.11 1016.98 1016.80 1016.93 1017.48 1018.15 1018.96 1019.25 1019.20 1018.28 1017.69 1017.18 1016.48 1016.11 1015.87 1015.73 1015.77 1015.52 1015.43 1015.33 1014.57 1013.76 1012.89 1012.22 1011.55 1011.14 1010.77
1023.14 1022.77 1022.70 1021.98 1021.20 1020.80 1020.01 1019.12 1018.71 1018.12 1018.04 1017.98 1018.12 1017.99 1017.90 1017.85 1017.57 1017.33 1017.44 1017.53 1017.50 1017.85 1018.28 1018.94 1019.64 1020.17 1019.72 1018.88 1018.27 1017.58 1016.63 1016.18 1015.93 1016.18 1016.22 1016.48 1016.55 1016.05 1015.12 1014.71 1014.09 1013.39 1012.10 1011.67 1011.18
Wind_Speed
22 22 22 20 19 19 18 17 16 15 13 12 11 10 9 10 12 2 7 14 9 10 3 5 4 4 2 3 3 4 1 4 6 5 10 8 6 9 9 9 6 11 10 15 1
22 22 22 22 21 19 19 18 16 15 13 12 11 9 8 8 2 7 13 13 13 7 5 5 4 3 2 3 2 5 5 9 8 7 11 5 4 8 9 12 6 9 17 23 12
22 21 21 22 21 19 18 17 16 14 12 11 9 8 7 5 4 8 2 14 11 10 0 1 1 1 3 1 3 3 7 5 7 10 11 5 9 4 7 8 2 6 8 10 6
23 23 22 22 21 20 19 18 16 14 12 10 8 7 6 1 4 3 6 15 8 6 2 2 3 3 3 6 5 3 9 6 9 9 7 9 6 4 4 7 4 10 16 15 7
23 24 23 22 21 19 18 17 16 13 11 9 7 5 3 2 12 5 10 9 6 6 5 5 4 4 3 4 4 5 9 9 11 11 9 11 11 9 6 6 3 11 8 12 18
22 23 23 22 21 19 17 16 14 12 10 8 4 2 2 5 7 8 9 7 5 5 5 6 6 7 5 6 4 6 7 10 8 8 5 5 11 3 6 5 2 8 11 8 16
23 23 23 23 23 21 19 16 15 12 10 5 6 4 2 17 2 7 10 8 8 7 5 7 8 4 3 9 3 4 6 9 6 5 5 2 8 7 7 8 4 8 6 9 12
23 23 24 23 23 23 21 19 18 13 5 3 7 2 9 7 2 6 6 6 5 7 7 8 5 5 5 4 9 6 3 4 8 6 7 5 10 10 12 7 13 7 8 8 11
25 24 24 25 24 24 22 22 18 7 4 7 3 2 12 11 5 12 11 10 12 7 6 8 2 4 4 4 7 6 5 6 10 6 6 4 10 11 9 8 11 12 8 9 8
25 26 26 26 25 24 24 19 3 6 3 5 5 3 6 5 4 6 9 12 7 4 2 3 5 0 4 5 8 5 6 5 8 11 0 9 10 11 12 7 14 14 13 8 9
26 27 28 28 26 21 13 2 4 2 2 6 7 7 11 3 3 6 7 5 4 4 6 3 2 7 10 9 9 7 6 7 9 14 4 9 8 11 11 6 10 12 11 10 9
28 28 29 31 31 26 3 1 6 3 11 12 18 22 22 8 8 12 4 6 5 6 2 4 7 12 8 9 8 9 9 13 10 12 8 9 8 9 6 7 7 9 9 10 6
28 28 30 31 35 1 3 6 8 4 3 17 11 12 11 15 13 18 9 7 6 6 6 8 10 11 12 12 11 13 13 14 16 16 6 5 8 4 8 4 7 8 7 6 9
30 28 28 31 5 6 5 6 7 3 5 10 5 7 7 8 7 17 15 10 5 12 7 7 10 11 12 10 12 13 11 16 10 4 6 4 12 5 6 10 5 9 9 11 11
30 31 25 15 6 4 6 10 8 7 5 4 2 5 9 9 3 4 4 5 11 6 6 7 4 7 7 7 5 10 11 15 13 7 5 3 2 8 4 9 11 10 9 10 10
32 32 28 1 2 10 10 12 5 6 8 8 5 3 4 4 4 3 2 4 4 3 1 6 3 3 5 7 4 6 5 3 1 2 9 6 6 2 3 5 9 12 18 21 21
37 33 19 3 5 4 7 6 5 4 6 9 6 9 4 6 6 1 1 6 2 3 1 3 3 1 6 6 8 10 7 5 5 2 7 8 3 7 6 10 10 14 16 17 20
38 33 5 6 6 5 5 6 0 5 7 10 9 12 5 9 8 10 4 4 12 7 2 2 1 5 9 5 3 4 3 3 5 2 5 5 5 4 4 6 11 15 10 16 22
29 7 5 5 6 3 7 5 2 5 8 9 11 6 6 8 5 8 8 4 6 6 5 4 2 4 16 7 6 7 6 7 4 3 1 5 2 2 7 10 12 14 16 16 17
7 5 5 7 3 6 6 4 2 5 5 6 6 9 9 12 10 7 5 8 3 8 4 2 3 6 6 6 13 7 8 6 5 5 4 4 3 1 7 8 8 13 10 9 14
3 5 6 7 4 6 4 4 3 8 8 6 4 3 5 5 6 7 7 4 5 6 7 2 3 5 5 6 6 3 3 4 2 5 2 4 5 2 2 1 3 5 4 6 11
4 4 6 7 7 2 3 8 7 3 6 5 6 6 5 4 3 3 8 9 4 1 2 2 4 0 2 6 7 2 5 4 4 5 4 5 7 4 5 6 4 4 3 2 7
3 4 6 7 5 4 5 4 6 6 1 2 2 2 2 3 3 2 2 1 4 3 1 3 2 3 7 7 6 3 7 5 4 1 3 2 5 5 3 5 5 4 6 5 2
3 5 6 6 1 3 4 3 5 6 4 5 1 4 3 4 3 4 4 7 4 4 9 6 3 6 5 5 3 8 8 8 2 1 2 5 6 12 5 7 7 8 8 8 4
1 3 2 5 5 7 3 4 5 5 5 7 7 5 5 5 3 3 7 4 5 3 4 5 1 0 2 5 5 8 11 8 9 7 4 6 4 7 13 8 9 12 6 7 7
2 3 5 5 5 5 5 3 1 1 2 3 4 8 5 4 4 3 3 3 2 4 3 2 1 4 4 6 6 9 11 9 7 6 7 7 3 9 7 12 15 14 9 8 9
4 4 4 5 5 4 5 4 5 2 2 6 3 4 4 3 4 4 5 5 6 4 3 5 5 3 6 4 6 7 4 4 5 5 2 4 3 7 12 16 11 14 14 8 9
Wind_Direction
355 353 348 345 342 339 336 331 325 321 317 315 316 320 322 317 310 142 243 219 186 224 153 321 323 295 50 228 181 115 81 222 232 239 268 337 347 326 290 331 126 140 100 270 326
352 350 348 345 342 338 335 332 324 319 314 311 312 316 318 323 298 248 244 219 220 171 171 202 290 336 317 246 229 134 160 229 208 237 277 276 308 306 336 338 326 119 159 250 144
349 348 347 346 342 336 333 330 324 316 310 307 306 306 308 318 333 252 276 207 173 168 2 241 69 118 234 235 231 211 214 220 256 249 260 260 283 247 319 339 56 188 96 34 13
348 346 345 343 341 337 332 330 326 320 314 308 303 294 303 258 299 278 2 176 150 137 151 202 163 166 220 229 240 224 271 236 263 259 275 267 256 283 241 239 310 146 147 119 206
344 342 341 339 337 334 329 326 325 320 312 305 296 279 272 26 249 225 126 128 127 144 182 183 164 157 218 223 254 203 258 261 252 259 258 275 264 239 245 238 266 160 160 178 202
341 338 337 336 334 332 328 322 319 316 306 290 255 199 226 269 244 165 143 140 160 175 182 151 212 192 278 246 170 259 271 266 275 262 247 247 276 177 252 277 357 127 203 222 214
340 338 336 334 332 329 326 320 310 312 302 298 183 215 266 240 291 142 161 192 176 177 194 206 215 131 304 316 232 268 301 313 289 270 275 4 311 277 255 293 265 175 233 192 223
339 337 335 332 330 328 325 315 303 298 290 146 162 243 246 257 209 218 198 286 250 203 197 239 227 199 182 273 333 0 26 320 292 335 283 114 276 269 273 259 281 226 231 214 227
338 336 334 332 330 326 320 310 301 260 172 150 126 133 265 300 181 220 181 204 227 229 217 232 205 211 337 10 354 7 251 298 309 275 257 200 277 261 261 253 257 271 202 232 248
338 335 332 330 328 326 321 307 94 120 177 204 261 356 266 248 227 188 181 188 202 240 223 196 56 297 8 82 243 266 286 280 265 273 146 289 272 285 282 231 249 249 261 230 233
338 335 331 330 325 325 339 26 19 36 234 209 210 245 292 248 322 184 200 167 184 126 168 238 144 229 236 219 221 234 235 249 266 274 211 250 257 266 276 299 265 252 241 245 244
337 335 332 329 324 322 150 106 230 207 296 222 241 235 237 256 305 295 132 147 160 216 167 6 231 230 227 236 238 244 253 272 281 261 182 266 262 264 280 263 256 253 243 230 228
335 334 331 330 322 354 192 240 276 3 295 288 234 234 223 209 232 255 173 179 169 204 212 191 242 227 228 252 249 249 240 251 244 268 283 283 287 311 303 292 291 279 256 257 243
331 330 331 335 347 321 284 284 319 140 19 273 234 258 152 172 234 224 228 161 195 201 212 214 257 244 249 239 245 251 238 238 237 197 247 215 275 300 270 296 293 298 301 284 282
329 324 328 321 291 303 275 334 311 54 336 268 215 184 136 150 208 220 163 150 194 188 140 240 261 290 291 236 247 243 265 260 253 223 177 290 28 266 3 323 299 289 290 286 276
327 324 330 45 200 245 317 306 42 51 258 343 35 301 98 184 279 61 128 59 130 157 259 216 253 214 253 306 7 312 298 276 18 147 253 208 171 257 248 281 316 337 9 11 5
324 324 322 232 240 341 324 38 46 177 323 4 345 340 43 15 359 157 214 33 88 96 19 341 277 304 15 7 359 21 40 335 320 310 231 215 186 222 73 33 39 58 33 21 12
327 318 221 222 256 341 32 51 229 320 359 358 338 318 58 12 22 20 43 70 29 15 113 121 79 32 11 77 298 317 108 157 281 265 289 295 214 188 76 85 73 50 33 24 24
326 324 318 268 228 92 61 52 265 348 353 349 326 2 5 360 21 24 70 62 43 27 80 55 252 6 44 19 34 330 45 279 251 272 224 243 81 19 24 29 44 47 35 21 16
327 329 284 293 80 68 77 227 323 34 1 1 27 22 14 3 22 24 58 6 40 27 87 338 326 19 348 61 31 32 308 347 15 337 293 300 348 95 11 346 32 34 25 26 29
17 8 265 334 66 53 147 231 43 37 37 12 12 19 20 14 8 353 360 25 11 1 56 81 134 298 31 34 313 7 348 303 144 168 217 328 293 18 177 228 11 43 14 6 41
354 6 297 8 46 26 31 318 308 91 25 12 34 48 17 304 260 305 301 317 259 196 128 317 131 56 224 262 290 238 38 10 101 292 199 194 260 91 0 346 333 32 347 151 122
348 279 314 57 71 349 306 301 346 11 359 139 308 93 51 294 305 330 263 261 150 59 83 288 40 12 353 4 20 67 329 318 277 87 254 148 262 151 193 257 235 211 251 263 46
5 349 330 38 95 52 332 314 328 313 35 45 11 338 341 256 217 290 319 31 53 90 69 71 76 136 178 207 285 303 329 345 16 252 227 242 281 310 264 254 261 275 270 289 340
65 273 216 313 337 330 296 278 319 354 23 40 359 33 3 289 312 77 29 28 56 23 60 87 76 58 260 283 295 307 318 310 311 269 250 273 284 311 305 298 258 249 260 245 243
48 16 350 281 282 329 316 254 191 92 58 355 20 314 27 59 20 30 23 37 326 19 70 3 253 39 288 281 288 294 288 278 280 290 319 298 303 359 322 355 359 341 269 226 240
317 337 106 279 325 7 320 11 38 43 15 87 338 351 29 344 308 267 196 215 228 181 188 142 153 114 259 285 328 314 296 289 253 59 296 59 279 341 356 350 360 341 13 317 278